Regional Weather Roundup
Issued by NWS Lake Charles, LA

Home | Current Version | Previous Version | Text Only | Print | Product List | Glossary On
Versions: 1 2 3 4 5 6 7 8 9 10 11 12 13 14 15 16 17 18 19 20 21 22 23 24 25 26 27 28 29 30 31 32 33 34 35 36 37 38 39 40 41 42 43 44 45 46 47 48
000
ASUS44 KLCH 271910
RWRLCH
RWRLCH
REGIONAL WEATHER ROUNDUP
NATIONAL WEATHER SERVICE LAKE CHARLES LA
100 PM CST TUE JAN 27 2015

Note: "fair" indicates few or no clouds below 12,000 feet with no
significant weather and/or obstructions to visibility.


ACROSS SOUTHEAST TEXAS

CITY           SKY/WX    TMP DP  RH WIND       PRES   REMARKS
BEAUMONT       SUNNY     76  43  30 MISG      30.12F
BEAUMONT CITY    N/A     73  45  36 N3        30.12F
ORANGE         CLEAR     74  44  34 E3        30.13F
JASPER         SUNNY     73  42  32 CALM      30.14F
$$

ACROSS CENTRAL LOUISIANA

CITY           SKY/WX    TMP DP  RH WIND       PRES   REMARKS
LEESVILLE      SUNNY     73  39  29 VRB7      30.11F
FULLERTON        N/A     76  39  26 NW5       30.09F
ALEXANDRIA INT SUNNY     72  38  29 VRB3      30.10F
ESLER FIELD    SUNNY     72  40  31 CALM      30.12F
DERIDDER         N/A     73  39  28 CALM      30.14F
OAKDALE        CLEAR     74  42  31 N5        30.12F
OPELOUSAS        N/A     70  41  34 CALM      30.11F
$$

ACROSS SOUTHWEST AND SOUTH CENTRAL LOUISIANA

CITY           SKY/WX    TMP DP  RH WIND       PRES   REMARKS
SULPHUR        CLEAR     74  42  31 NE3       30.12F
LAKE CHARLES   SUNNY     73  44  35 E12       30.12F
CHENNAULT INT  SUNNY     72  43  35 NE5       30.12
CAMERON PHI    CLEAR     66  50  55 CALM      30.15F
DEQUINCY         N/A     73  44  35 NE5       30.12F
JENNINGS         N/A     71  44  37 NE3       30.12F
LAFAYETTE      SUNNY     72  43  35 NE8       30.11F
NEW IBERIA     SUNNY     71  43  36 CALM      30.11F
ABBEVILLE        N/A     72  42  34 NE5       30.11F
PATTERSON      SUNNY     70  45  40 NE6       30.11F
SALT POINT       N/A     60  50  69 W5        30.10F
$$

SELECTED SITES ACROSS THE REGION

CITY           SKY/WX    TMP DP  RH WIND       PRES   REMARKS
HOUSTON BUSH   SUNNY     74  43  32 NW3       30.13F
HOUSTON HOBBY  SUNNY     73  40  30 VRB5      30.12F
GALVESTON      SUNNY     72  44  36 W6        30.13F
COLLEGE STAT   SUNNY     73  42  32 CALM      30.15F
CONROE         SUNNY     75  44  33 VRB3      30.13F
HUNTSVILLE     SUNNY     74  43  32 VRB3      30.13F
LUFKIN         SUNNY     77  42  28 E8        30.13F
SHREVEPORT     SUNNY     71  38  29 SW3       30.13F
MONROE         SUNNY     66  39  37 CALM      30.14F
NATCHEZ MS     SUNNY     66  37  34 NW12G17   30.12F
BATON ROUGE    SUNNY     75  36  24 VRB6      30.09F
N.O. INTL ARPT SUNNY     67  40  37 N5        30.10F
SLIDELL        SUNNY     74  36  25 NW8       30.07F
$$

MARINE REPORTS

STATION/POSITION TIME  TEMP    WIND        PRES    VSBY  WAVE
                       AIR SEA DIR/SP/G                  HT/PER
                 (UTC) (F)     (DEG/KT/KT) (MB)    (MI)  (FT/S)
BUOY 30 S HIGH I 1900   58 57  230/  6/  6 1020.1F         1/ 4
SEA RIM ST PARK  1900   63     210/  7/  8 1020.4F
PORT ARTHUR      1900      52  110/  4/  6 1020.0F
SABINE PASS N    1900   68 53  350/  3/  4 1020.0F
TEXAS POINT      NOT AVBL
CALCASIEU PASS   1900   64 56  230/  4/  5   N/A
LK CHARLES BEACH 1900   73 51              1019.9F
MARSH ISLAND     1800   61     320/  5/  7   N/A
FRESH WATER LOCK 1900   69 55  340/  5/  7 1019.7F
AMERADA PASS     1900   59 46  250/  5/  9 1019.6F
$$


USA.gov is the U.S. government's official web portal to all federal, state and local government web resources and services.